Location: Risskov
(56.1972°N, 10.2480°E)
Time: 13:04:06
(UTC+00:00)

Nadezhda 3 Rocket - Pass Details

Date: 05 July 2020
Orbit: 957 x 999 km, 82.9° (Epoch: 06 August)

Event Time Altitude Azimuth Distance (km) Brightness Sun altitude
Rises 21:13:42 0° 348° (NNW) 3,738 8.7 -6.5°
Reaches altitude 10° 21:16:17 10° 352° (N) 2,784 7.7 -6.6°
Maximum altitude 21:22:39 63° 73° (ENE) 1,113 4.3 -7.1°
Drops below altitude 10° 21:28:55 10° 154° (SSE) 2,752 5.7 -7.5°
Enters shadow 21:29:10 - 155° (SSE) 2,843 5.7 -7.5°
